When you browse on this site, cookies collect data to enhance your experience and personalize the content and advertising you see.
Visit our Privacy Policy to learn more. By continuing to use the site, you agree to this use of cookies and data.
  • In Austria
  • List of Countries
  • For 7 days
  • Water Temperature
  • Weather Map
  • News
  • Weather Widgets
  • user-avatar
    Login

    Hourly Weather Pacho

    Today, 25 January, Saturday

    Time Temperature Precipitation Wind Pressure Humidity
    00:00 +16°C° 0 mm 0 mps 613 mmHg 97%
    01:00 +16°C° 0 mm 0 mps 613 mmHg 97%
    02:00 +16°C° 0 mm 0 mps 613 mmHg 97%
    03:00 +16°C° 0 mm 0 mps 613 mmHg 97%
    04:00 +16°C° 0 mm 0 mps 612 mmHg 97%
    05:00 +16°C° 0 mm 0 mps 613 mmHg 96%
    06:00 +16°C° 0 mm 0 mps 613 mmHg 95%
    07:00 +16°C° 0 mm 0 mps 614 mmHg 94%
    08:00 +18°C° 0.3 mm 0 mps 614 mmHg 90%
    09:00 +21°C° 0.3 mm 1 mps 615 mmHg 86%
    10:00 +23°C° 0.3 mm 1 mps 616 mmHg 82%
    11:00 +23°C° 1 mm 1 mps 615 mmHg 84%
    12:00 +22°C° 1 mm 1 mps 614 mmHg 85%
    13:00 +22°C° 1 mm 1 mps 613 mmHg 87%
    14:00 +22°C° 0.9 mm 1 mps 613 mmHg 88%
    15:00 +22°C° 0.9 mm 1 mps 612 mmHg 89%
    16:00 +22°C° 0.9 mm 1 mps 612 mmHg 90%
    17:00 +21°C° 0.5 mm 1 mps 612 mmHg 92%
    18:00 +18°C° 0.5 mm 0 mps 612 mmHg 95%
    19:00 +17°C° 0.5 mm 0 mps 612 mmHg 97%
    20:00 +17°C° 0.2 mm 0 mps 612 mmHg 97%
    21:00 +17°C° 0.2 mm 0 mps 613 mmHg 97%
    22:00 +17°C° 0.2 mm 0 mps 613 mmHg 96%
    23:00 +16°C° 0.1 mm 0 mps 613 mmHg 97%

    Tomorrow, 26 January, Sunday

    Time Temperature Precipitation Wind Pressure Humidity
    00:00 +16°C° 0.1 mm 0 mps 613 mmHg 97%
    01:00 +16°C° 0.1 mm 0 mps 612 mmHg 97%
    02:00 +16°C° 0.1 mm 0 mps 612 mmHg 97%
    03:00 +16°C° 0.1 mm 0 mps 612 mmHg 97%
    04:00 +16°C° 0.1 mm 0 mps 612 mmHg 97%
    05:00 +16°C° 0.1 mm 0 mps 612 mmHg 97%
    06:00 +16°C° 0.1 mm 0 mps 613 mmHg 96%
    07:00 +16°C° 0.1 mm 0 mps 613 mmHg 96%
    08:00 +18°C° 0.3 mm 0 mps 614 mmHg 92%
    09:00 +21°C° 0.3 mm 1 mps 615 mmHg 88%
    10:00 +22°C° 0.3 mm 1 mps 615 mmHg 84%
    11:00 +22°C° 1 mm 1 mps 615 mmHg 85%
    12:00 +22°C° 1 mm 1 mps 614 mmHg 86%
    13:00 +22°C° 1 mm 1 mps 613 mmHg 87%
    14:00 +22°C° 1.1 mm 1 mps 613 mmHg 88%
    15:00 +22°C° 1.1 mm 1 mps 612 mmHg 89%
    16:00 +21°C° 1.1 mm 1 mps 612 mmHg 91%
    17:00 +20°C° 0.8 mm 1 mps 612 mmHg 93%
    18:00 +18°C° 0.8 mm 0 mps 612 mmHg 95%
    19:00 +17°C° 0.8 mm 0 mps 612 mmHg 97%
    20:00 +17°C° 0.5 mm 0 mps 613 mmHg 97%
    21:00 +16°C° 0.5 mm 0 mps 613 mmHg 96%
    22:00 +16°C° 0.5 mm 0 mps 613 mmHg 96%
    23:00 +16°C° 0.3 mm 0 mps 613 mmHg 96%

    Day after tomorrow, 27 January, Monday

    Time Temperature Precipitation Wind Pressure Humidity
    00:00 +16°C° 0.3 mm 0 mps 613 mmHg 96%
    01:00 +16°C° 0.3 mm 0 mps 613 mmHg 96%
    02:00 +15°C° 0.3 mm 0 mps 612 mmHg 96%
    03:00 +15°C° 0.3 mm 0 mps 612 mmHg 96%
    04:00 +15°C° 0.3 mm 0 mps 612 mmHg 96%
    05:00 +15°C° 0.2 mm 0 mps 612 mmHg 96%
    06:00 +16°C° 0.2 mm 0 mps 613 mmHg 95%
    07:00 +16°C° 0.2 mm 0 mps 614 mmHg 95%
    08:00 +17°C° 0.3 mm 0 mps 614 mmHg 91%
    09:00 +18°C° 0.3 mm 0 mps 615 mmHg 88%
    10:00 +22°C° 0.3 mm 1 mps 615 mmHg 85%
    11:00 +22°C° 1 mm 1 mps 615 mmHg 84%
    12:00 +23°C° 1 mm 1 mps 614 mmHg 83%
    13:00 +23°C° 1 mm 1 mps 614 mmHg 83%
    14:00 +23°C° 1.5 mm 1 mps 613 mmHg 85%
    15:00 +22°C° 1.5 mm 1 mps 613 mmHg 87%
    16:00 +22°C° 1.5 mm 1 mps 612 mmHg 89%
    17:00 +21°C° 1.5 mm 1 mps 612 mmHg 91%
    18:00 +18°C° 1.5 mm 0 mps 612 mmHg 94%
    19:00 +17°C° 1.5 mm 0 mps 612 mmHg 96%
    20:00 +17°C° 0.6 mm 0 mps 613 mmHg 95%
    21:00 +16°C° 0.6 mm 0 mps 613 mmHg 95%
    22:00 +16°C° 0.6 mm 0 mps 613 mmHg 95%
    23:00 +16°C° 0.1 mm 0 mps 613 mmHg 95%

    28 January, Tuesday

    Time Temperature Precipitation Wind Pressure Humidity
    00:00 +16°C° 0.1 mm 0 mps 613 mmHg 95%
    01:00 +15°C° 0.1 mm 0 mps 612 mmHg 95%
    02:00 +15°C° 0 mm 0 mps 612 mmHg 95%
    03:00 +15°C° 0 mm 0 mps 612 mmHg 95%
    04:00 +15°C° 0 mm 0 mps 611 mmHg 95%
    05:00 +15°C° 0 mm 0 mps 612 mmHg 94%
    06:00 +15°C° 0 mm 0 mps 613 mmHg 93%
    07:00 +15°C° 0 mm 0 mps 613 mmHg 92%
    08:00 +19°C° 0.1 mm 1 mps 614 mmHg 86%
    09:00 +21°C° 0.1 mm 1 mps 615 mmHg 79%
    10:00 +23°C° 0.1 mm 1 mps 616 mmHg 72%
    11:00 +23°C° 0.4 mm 1 mps 615 mmHg 74%
    12:00 +23°C° 0.4 mm 1 mps 614 mmHg 75%
    13:00 +23°C° 0.4 mm 1 mps 614 mmHg 77%
    14:00 +23°C° 0.5 mm 1 mps 613 mmHg 80%
    15:00 +22°C° 0.5 mm 1 mps 612 mmHg 83%
    16:00 +22°C° 0.5 mm 1 mps 611 mmHg 86%
    17:00 +21°C° 0.5 mm 1 mps 612 mmHg 90%
    18:00 +18°C° 0.5 mm 0 mps 612 mmHg 94%
    19:00 +17°C° 0.5 mm 0 mps 612 mmHg 97%
    20:00 +16°C° 0.2 mm 0 mps 612 mmHg 97%
    21:00 +16°C° 0.2 mm 0 mps 612 mmHg 97%
    22:00 +16°C° 0.2 mm 0 mps 612 mmHg 97%
    23:00 +16°C° 0.1 mm 0 mps 612 mmHg 97%

    29 January, Wednesday

    Time Temperature Precipitation Wind Pressure Humidity
    00:00 +16°C° 0.1 mm 0 mps 612 mmHg 97%
    01:00 +16°C° 0.1 mm 0 mps 612 mmHg 96%
    02:00 +15°C° 0.1 mm 0 mps 612 mmHg 96%
    03:00 +15°C° 0.1 mm 0 mps 612 mmHg 96%
    04:00 +15°C° 0.1 mm 0 mps 611 mmHg 96%
    05:00 +15°C° 0 mm 0 mps 612 mmHg 95%
    06:00 +15°C° 0 mm 0 mps 612 mmHg 94%
    07:00 +15°C° 0 mm 0 mps 613 mmHg 93%
    08:00 +17°C° 0 mm 0 mps 614 mmHg 86%
    09:00 +21°C° 0 mm 1 mps 614 mmHg 79%
    10:00 +23°C° 0 mm 1 mps 615 mmHg 73%
    11:00 +23°C° 0.2 mm 1 mps 614 mmHg 73%
    12:00 +23°C° 0.2 mm 1 mps 614 mmHg 73%
    13:00 +23°C° 0.2 mm 1 mps 613 mmHg 74%
    14:00 +23°C° 0.6 mm 1 mps 613 mmHg 78%
    15:00 +22°C° 0.6 mm 1 mps 612 mmHg 83%
    16:00 +22°C° 0.6 mm 1 mps 611 mmHg 88%
    17:00 +21°C° 0.4 mm 1 mps 611 mmHg 90%
    18:00 +18°C° 0.4 mm 0 mps 611 mmHg 93%
    19:00 +17°C° 0.4 mm 0 mps 612 mmHg 96%
    20:00 +16°C° 0.3 mm 0 mps 612 mmHg 96%
    21:00 +16°C° 0.3 mm 0 mps 612 mmHg 96%
    22:00 +16°C° 0.3 mm 0 mps 612 mmHg 96%
    23:00 +16°C° 0.2 mm 0 mps 612 mmHg 96%

    30 January, Thursday

    Time Temperature Precipitation Wind Pressure Humidity
    00:00 +15°C° 0.2 mm 0 mps 612 mmHg 96%
    01:00 +15°C° 0.2 mm 0 mps 612 mmHg 96%
    02:00 +15°C° 0.3 mm 0 mps 611 mmHg 96%
    03:00 +15°C° 0.3 mm 0 mps 611 mmHg 96%
    04:00 +15°C° 0.3 mm 0 mps 611 mmHg 96%
    05:00 +15°C° 0.2 mm 0 mps 611 mmHg 95%
    06:00 +15°C° 0.2 mm 0 mps 612 mmHg 94%
    07:00 +15°C° 0.2 mm 0 mps 612 mmHg 93%
    08:00 +17°C° 0.2 mm 0 mps 613 mmHg 89%
    09:00 +20°C° 0.2 mm 1 mps 614 mmHg 84%
    10:00 +22°C° 0.2 mm 1 mps 615 mmHg 79%
    11:00 +22°C° 0.5 mm 1 mps 614 mmHg 79%
    12:00 +23°C° 0.5 mm 1 mps 614 mmHg 78%
    13:00 +23°C° 0.5 mm 1 mps 613 mmHg 78%
    14:00 +23°C° 1 mm 1 mps 613 mmHg 81%
    15:00 +22°C° 1 mm 1 mps 612 mmHg 84%
    16:00 +20°C° 1 mm 0 mps 611 mmHg 86%
    17:00 +19°C° 0.7 mm 0 mps 611 mmHg 90%
    18:00 +18°C° 0.7 mm 0 mps 611 mmHg 93%
    19:00 +18°C° 0.7 mm 1 mps 611 mmHg 96%
    20:00 +18°C° 0.4 mm 1 mps 612 mmHg 95%
    21:00 +18°C° 0.4 mm 1 mps 612 mmHg 95%
    22:00 +16°C° 0.4 mm 1 mps 612 mmHg 95%
    23:00 +16°C° 0 mm 1 mps 612 mmHg 95%
    Show more